RH
39 88 100 100 100 100 100 99 76 74 76 93 66 63 57 78 100 100 100 100 91 80 62 60 81 77 71 68 82 95 99 100 100 100 100 100 100 100 87 78 72 66 58
59 39 52 100 100 100 100 100 99 96 100 90 84 73 81 65 100 100 100 100 100 100 95 68 82 88 75 65 68 76 85 100 100 100 100 100 100 100 100 100 100 89 79
74 69 44 41 98 100 100 100 100 99 98 100 85 90 100 100 92 98 100 100 100 100 100 89 83 87 67 67 68 94 95 88 100 100 100 100 96 99 100 100 92 91 93
88 88 82 53 40 73 100 100 100 100 100 100 100 100 100 100 100 100 100 100 100 100 100 99 100 100 94 69 57 52 68 79 87 99 100 100 100 100 100 100 100 100 99
87 92 88 86 59 40 40 77 100 100 100 100 100 100 100 100 100 98 68 96 100 100 100 100 99 100 100 97 91 60 59 55 60 73 81 98 100 100 100 100 100 100 100
80 100 99 99 91 68 49 47 59 100 100 100 100 100 100 100 100 100 100 100 85 76 85 100 100 100 100 100 95 76 66 68 72 66 76 80 87 87 89 88 100 100 100
74 76 100 100 100 95 84 61 48 53 100 100 100 100 100 100 100 100 100 100 100 100 84 74 98 100 100 100 100 100 98 98 92 84 88 100 86 84 91 94 88 98 100
80 88 92 82 91 99 93 88 64 49 48 98 100 100 100 100 98 100 100 100 100 100 100 94 93 79 77 70 88 99 100 95 100 100 100 77 71 68 74 63 60 56 69
91 99 100 100 94 66 70 85 88 61 54 52 68 100 100 100 100 100 100 100 100 100 100 100 100 94 87 79 89 100 92 76 98 100 100 95 73 84 76 83 78 67 63
87 100 100 100 100 100 90 68 61 79 68 64 59 52 100 100 100 99 94 100 100 100 100 100 100 100 100 92 86 79 85 95 100 98 90 89 94 99 90 75 73 100 100
90 73 77 92 94 100 100 100 95 66 55 65 65 58 46 98 100 100 100 93 93 100 100 100 100 100 100 87 96 93 81 99 96 100 77 82 74 94 91 97 76 83 78
63 65 56 52 57 79 97 100 100 100 92 76 62 56 51 53 90 100 100 100 95 88 100 99 100 100 100 100 100 100 100 84 70 78 54 72 80 86 100 100 76 95 83
40 50 30 21 20 28 46 80 96 96 97 94 87 66 60 63 55 77 100 100 100 100 98 93 86 89 100 100 100 100 100 100 100 98 96 99 100 98 99 91 95 88 77
20 36 29 15 15 14 20 43 74 87 97 100 100 93 94 72 64 67 61 98 100 100 100 100 100 96 81 100 100 100 100 100 100 100 100 100 100 100 100 100 95 87 83
14 19 25 16 14 14 13 15 41 63 79 99 100 100 98 99 95 82 73 71 73 100 100 100 100 100 100 88 100 100 100 100 100 100 100 100 100 100 100 100 100 89 91
12 14 15 16 14 14 14 14 19 36 57 64 74 84 96 98 92 90 82 78 72 74 83 100 100 100 100 100 100 100 100 100 100 100 100 100 100 100 100 100 100 100 98
12 12 13 13 14 14 14 14 14 17 23 36 46 58 66 74 78 79 74 63 57 68 67 66 76 100 100 100 100 100 100 100 100 100 100 100 100 100 100 100 100 100 100
12 12 13 12 13 14 14 14 13 14 14 15 17 22 38 56 75 86 79 66 59 60 66 64 66 64 76 100 100 100 100 100 100 100 100 100 100 100 100 100 100 100 100
12 12 12 12 12 13 14 15 15 14 14 14 14 14 14 15 18 26 34 50 57 57 55 58 64 64 62 60 70 97 100 100 100 100 100 100 100 100 100 100 100 100 100
11 11 12 12 12 13 14 14 14 15 15 15 14 14 14 14 14 14 14 14 14 15 20 30 48 59 63 61 63 60 58 68 93 100 100 100 100 100 100 100 100 100 100
9 10 10 11 12 12 12 13 14 14 15 16 16 16 15 14 14 14 14 15 15 14 15 14 15 17 25 41 54 60 59 53 48 49 58 86 100 100 100 100 100 100 100
10 9 10 10 11 11 11 12 13 14 14 15 16 17 17 17 15 14 14 14 15 15 16 15 14 14 14 15 16 22 36 48 54 52 55 53 52 56 72 93 100 100 100
11 10 10 10 10 10 11 11 11 12 14 15 16 16 17 18 18 17 15 14 14 14 15 17 15 14 13 13 13 14 14 14 16 28 39 49 51 57 62 61 63 62 66
10 10 10 10 10 9 9 10 10 11 12 13 13 13 14 16 17 17 17 17 16 16 16 16 16 14 13 13 13 14 14 15 15 15 18 25 36 42 46 51 52 55 58
9 9 9 9 10 10 10 10 10 10 10 10 10 11 12 13 14 15 15 15 16 16 16 16 15 15 15 15 14 15 16 17 19 20 20 20 22 27 28 28 35 45 57
9 9 9 10 9 9 10 10 10 10 11 11 11 12 13 15 16 16 17 16 16 18 17 16 15 14 15 14 14 15 24 24 22 23 23 20 20 23 27 37 44 51 60
Wind_Speed
80 84 90 98 100 103 102 101 95 94 92 87 91 87 79 80 79 75 69 68 69 69 67 68 68 67 67 69 70 68 66 63 61 59 56 52 52 54 56 58 58 59 60
72 85 90 96 90 96 95 92 98 95 90 94 90 87 83 84 78 80 74 73 72 74 69 68 68 66 67 68 66 69 68 67 68 66 66 64 62 62 61 57 59 62 65
70 77 87 93 103 94 88 88 93 95 97 94 91 90 84 76 77 82 80 78 83 81 79 77 74 71 70 72 68 63 64 67 66 68 68 69 68 67 65 64 65 66 66
72 78 81 89 97 103 108 95 89 88 89 93 89 86 87 85 79 80 83 84 81 78 78 78 79 74 73 71 73 70 69 70 69 69 70 68 69 67 67 66 64 67 69
74 78 82 84 89 97 97 105 109 98 91 90 91 94 89 91 92 98 98 86 84 89 86 78 75 79 76 76 75 73 71 71 71 71 70 71 69 70 72 73 74 74 76
74 79 83 86 86 88 94 95 100 112 103 88 89 91 93 90 82 79 83 83 85 87 87 93 86 80 81 81 81 83 81 79 78 76 74 74 74 74 74 75 77 80 82
72 79 87 91 90 88 88 92 95 97 115 110 95 93 97 95 92 88 87 85 86 83 84 87 89 92 91 91 90 90 85 82 80 79 77 72 72 71 72 73 76 78 80
70 76 80 87 93 93 90 89 91 94 96 117 111 106 100 102 99 98 89 95 87 78 79 84 87 86 85 86 87 87 86 83 82 79 74 73 70 73 75 76 77 77 80
68 75 80 82 86 85 89 89 88 91 95 99 108 121 117 108 108 109 104 98 93 86 87 90 91 89 87 82 81 81 80 79 80 80 76 75 76 75 76 77 78 79 80
67 72 78 81 83 87 89 87 91 90 93 93 93 97 113 111 106 110 111 107 104 100 95 89 80 89 89 89 87 86 83 81 77 79 82 86 81 81 82 82 85 81 83
66 69 70 78 79 83 90 97 93 88 87 92 93 95 96 112 111 106 107 111 110 107 106 99 102 95 85 83 87 90 87 85 84 87 92 91 91 89 91 90 88 89 87
60 64 68 73 76 79 85 91 96 96 92 86 87 89 94 98 109 114 110 108 110 110 111 110 107 101 93 93 89 96 95 94 97 101 99 95 94 95 96 94 89 90 93
55 61 63 67 69 74 78 83 92 95 92 90 88 85 87 91 98 108 118 117 112 109 111 111 114 112 107 99 92 101 96 84 88 92 95 95 99 98 98 97 96 99 98
53 57 61 63 66 68 74 79 86 93 97 96 94 90 84 84 86 92 101 119 126 119 115 115 113 112 111 109 106 99 90 82 80 84 90 94 96 101 103 104 104 104 103
53 55 58 61 64 67 69 72 79 86 86 92 98 97 91 89 90 88 94 101 106 124 125 122 115 115 113 112 113 108 100 96 86 89 89 92 92 97 98 97 100 103 100
53 55 57 59 62 63 67 68 70 78 83 86 89 92 95 95 92 91 95 98 103 107 115 128 128 123 120 119 116 118 114 105 101 100 90 91 95 100 103 104 105 109 109
51 54 55 57 59 62 64 65 69 71 74 79 82 85 89 90 91 90 93 99 103 105 107 111 116 131 128 125 124 123 121 121 115 106 105 105 110 106 105 104 110 111 110
52 53 55 56 58 61 62 64 66 69 71 73 75 76 78 80 82 84 88 92 98 103 105 107 108 111 121 134 130 132 132 129 127 123 118 119 117 115 118 117 117 113 117
55 56 56 57 59 61 62 63 65 67 68 70 71 71 72 73 75 78 80 82 87 93 98 101 105 108 108 111 117 129 134 132 133 134 131 128 128 125 127 125 125 126 126
55 57 59 60 62 62 63 64 65 66 67 67 68 68 71 72 72 75 76 75 76 78 81 85 91 99 105 109 109 113 118 122 131 136 137 136 135 134 132 133 130 132 133
53 56 58 61 62 65 67 67 66 66 67 68 68 68 69 70 72 72 70 71 74 75 76 77 78 83 87 94 102 110 111 111 114 118 122 127 136 136 132 136 135 137 136
52 55 56 59 61 63 65 66 67 67 67 68 69 70 69 69 71 72 71 72 72 73 73 75 77 79 81 84 85 92 99 104 111 111 114 116 117 117 124 130 134 139 139
48 50 53 56 58 61 63 63 63 64 66 68 68 69 69 70 70 70 70 70 70 71 71 73 74 75 78 80 82 85 87 93 99 102 104 104 105 108 110 111 113 114 114
43 45 46 49 54 57 58 59 61 61 63 65 67 68 66 67 68 69 69 69 69 69 70 71 69 70 71 74 74 76 76 79 84 91 94 94 94 95 98 99 100 101 102
37 39 40 41 43 47 49 53 54 56 59 62 62 62 62 63 65 65 63 64 63 65 65 62 62 63 65 68 68 69 70 71 73 79 84 85 87 88 88 89 91 91 91
34 34 34 36 36 38 40 44 48 52 54 56 56 57 57 57 57 58 58 58 58 58 59 58 58 59 60 61 60 57 57 62 66 68 72 76 77 77 78 80 81 82 84
Wind_Direction
239 234 236 241 244 247 245 247 249 248 248 247 250 251 250 252 251 252 250 250 254 256 255 254 251 249 250 252 252 253 252 253 254 256 257 260 263 265 268 271 271 272 272
241 238 235 232 234 241 244 246 244 244 242 244 249 252 250 249 249 248 243 245 247 251 252 254 251 250 252 253 254 254 254 254 254 255 257 259 260 264 265 264 266 270 271
241 240 237 236 232 229 232 241 246 246 244 245 246 244 242 244 248 249 244 247 251 251 251 252 249 252 253 257 255 254 255 256 257 259 259 259 260 262 263 262 266 266 269
241 239 238 237 235 234 232 231 238 240 238 239 238 240 241 239 236 239 243 241 239 244 246 246 251 252 253 252 254 254 255 256 257 258 258 259 259 260 259 260 259 263 267
240 239 238 237 236 235 235 235 233 233 237 239 241 240 238 241 242 248 251 243 242 240 243 245 244 250 249 250 252 254 255 259 261 261 261 260 260 261 263 262 263 265 267
239 239 239 238 238 236 235 235 234 230 230 235 236 235 236 235 237 239 238 238 239 241 242 245 244 244 246 251 255 257 260 259 262 262 261 262 263 264 265 265 267 268 268
242 239 235 236 237 238 235 235 235 235 229 230 230 235 238 239 235 237 236 238 241 242 245 245 245 247 248 249 252 256 258 259 259 258 262 263 264 266 265 266 267 268 269
241 241 244 243 235 235 235 234 234 234 235 230 229 232 235 241 236 235 235 237 237 240 246 246 246 249 250 251 253 255 257 257 258 260 259 260 266 267 268 268 268 269 270
243 241 240 243 245 246 241 236 233 234 234 234 233 231 235 238 240 241 241 236 237 237 246 248 249 248 250 250 250 252 255 258 255 256 258 263 269 268 270 271 270 273 273
243 242 241 240 244 247 247 247 241 235 234 235 236 235 231 233 233 239 240 241 238 239 241 244 247 251 251 252 252 254 253 253 251 253 261 266 266 264 267 269 269 270 270
246 244 242 239 241 243 245 245 245 247 243 236 235 236 234 233 232 232 238 240 241 240 242 241 246 249 251 249 251 251 251 248 250 256 262 266 268 264 266 265 268 267 268
247 245 244 242 239 239 241 244 244 243 242 243 241 238 236 233 232 233 234 238 241 241 241 243 245 247 246 248 249 252 251 251 257 260 264 266 267 265 263 262 266 266 269
247 245 244 243 243 240 239 240 243 245 244 242 243 243 241 239 237 234 233 236 236 241 241 243 245 244 244 245 249 253 254 257 254 263 264 264 264 261 261 262 263 267 269
253 246 244 242 241 242 242 239 239 242 243 243 245 245 244 241 240 241 238 236 236 238 237 238 242 244 245 243 246 248 248 251 248 251 257 262 265 261 261 261 264 264 269
255 248 244 241 240 240 241 243 241 241 241 243 245 245 244 245 245 241 239 239 240 239 238 238 239 241 241 242 243 245 243 242 246 245 254 258 260 265 266 267 268 272 271
258 250 246 242 239 239 241 241 241 242 240 240 240 242 245 246 244 243 241 240 239 240 242 241 239 239 240 241 242 242 243 244 243 245 248 252 256 262 264 267 269 272 272
260 254 248 244 240 240 239 241 241 241 241 241 242 243 241 241 241 242 242 240 239 240 241 242 243 241 241 241 242 243 243 245 244 244 245 246 251 258 262 264 266 268 270
261 256 250 246 241 238 240 240 241 242 241 243 244 244 243 243 242 243 242 241 240 240 241 242 244 245 244 243 243 243 244 245 245 246 246 247 247 251 256 262 264 267 268
262 257 251 247 244 240 238 239 240 241 242 242 242 242 243 244 244 245 245 243 243 243 243 243 244 245 246 246 246 245 245 246 246 246 246 248 250 250 251 256 259 262 265
263 259 255 249 245 242 240 239 239 240 241 242 243 243 243 243 243 244 245 245 246 246 246 246 246 246 246 246 246 247 247 248 247 248 249 249 250 250 251 254 257 261 265
265 260 256 254 250 246 243 241 240 240 241 242 242 243 243 244 245 246 246 247 247 247 247 247 247 248 248 248 248 248 248 250 250 252 252 251 250 251 253 251 255 259 261
265 261 257 254 251 250 248 244 242 242 242 242 242 242 242 243 244 245 245 246 246 245 245 246 245 246 246 247 248 248 248 249 250 253 253 253 255 255 256 257 258 260 263
267 261 257 254 253 251 250 248 245 242 240 240 241 241 241 242 243 243 244 245 246 246 247 247 247 247 248 249 249 249 250 249 249 250 252 254 254 255 255 257 259 262 264
271 267 262 256 253 252 250 249 247 244 241 240 240 239 239 240 241 242 243 244 246 247 247 247 248 249 250 251 251 252 253 251 250 250 251 252 253 253 255 257 260 262 264
272 269 265 260 254 251 249 247 245 243 242 241 240 240 239 240 241 242 244 245 246 248 249 248 248 248 249 249 250 251 250 247 248 249 249 250 251 254 256 258 260 262 264
276 269 265 261 254 251 247 244 241 239 238 239 238 238 239 239 240 241 242 243 244 246 246 246 248 247 247 248 250 251 250 247 247 248 248 250 253 255 257 258 260 263 265